Regional Weather Roundup
Issued by NWS

Home | Current Version | Previous Version | Text Only | Print | Product List | Glossary On
Versions: 1 2 3 4 5 6 7 8 9 10 11 12 13 14 15 16 17 18 19 20 21 22 23 24 25 26 27 28 29 30 31 32 33 34 35 36 37 38 39 40 41 42 43 44 45 46 47 48 49 50
000
ASUS46 KSEW 260510
RWRWA

WASHINGTON REGIONAL WEATHER ROUNDUP
NATIONAL WEATHER SERVICE SEATTLE WA
900 PM PST TUE NOV 25 2014

NOTE:"FAIR" INDICATES FEW OR NO CLOUDS BELOW 12,000 FEET WITH NO
SIGNIFICANT WEATHER AND/OR OBSTRUCTIONS TO VISIBILITY.

WAZ505-507>509-260600-
SEATTLE, TACOMA, EVERETT, AND VICINITY

CITY           SKY/WX    TMP DP  RH WIND       PRES   REMARKS
EVERETT        CLOUDY    46  45  96 CALM      30.12S FOG
BOEING FIELD   CLOUDY    59  52  77 S10G22    30.16R
RENTON         CLOUDY    58  53  84 S12G20    30.16R
SEATAC AIRPORT CLOUDY    56  53  90 S15       30.17R
JBLM-MCCHORD   LGT RAIN  55  55 100 S10       30.20R
PUYALLUP       NOT AVBL
JBLM-FT LEWIS  DRIZZLE   56  55  99 S14       30.19F
TACOMA NARROWS CLOUDY    56  52  86 S15G26    30.18S
$$

WAZ001-503-506-510-514-515-260600-
NORTH INTERIOR

CITY           SKY/WX    TMP DP  RH WIND       PRES   REMARKS
BELLINGHAM     LGT RAIN  43  39  87 N5        30.13S FOG
FRIDAY HARBOR  LGT RAIN  44  43  96 CALM      30.14F FOG
EASTSOUND      LGT RAIN  43  43 100 NE5       30.12S
PORT ANGELES   CLOUDY    46  44  93 CALM      30.13F FOG
NAS WHIDBEY    LGT RAIN  48  44  86 SE6       30.13F FOG
BURLINGTON     CLOUDY    45  45 100 NE5       30.14F
$$

WAZ020-022-039-040-504-511-512-260600-
SOUTHWEST INTERIOR

CITY           SKY/WX    TMP DP  RH WIND       PRES   REMARKS
SHELTON        CLOUDY    57  53  86 SW14      30.15S
OLYMPIA        CLOUDY    57  53  86 S9G18     30.20S
CHEHALIS       CLOUDY    57  55  94 SE12G18   30.22S
KELSO          CLOUDY    57  52  82 S6        30.30F
VANCOUVER      CLOUDY    59  53  80 S5        30.28S
SCAPPOOSE, OR  CLOUDY    56  53  90 S3        30.27F
PORTLAND, OR   CLOUDY    59  54  83 S7        30.29S
$$

WAZ021-516-517-260600-
WASHINGTON COAST

CITY           SKY/WX    TMP DP  RH WIND       PRES   REMARKS
FORKS          CLOUDY    55  55 100 SW12G18   30.15S FOG
HOQUIAM        CLOUDY    55  55 100 S17       30.20R FOG
ASTORIA, OR    CLOUDY    56  55  97 SW16G25   30.24F FOG
$$

WAZ019-023-024-040-518-519-260600-
CASCADE MOUNTAINS AND COLUMBIA GORGE

CITY           SKY/WX    TMP DP  RH WIND       PRES   REMARKS
STAMPEDE PASS  NOT AVBL
TROUTDALE, OR  CLOUDY    60  53  77 CALM      30.28S
THE DALLES, OR CLOUDY    60  50  69 N10       30.21F
$$

WAZ026-027-041>044-520-521-260600-
EAST SLOPES

CITY           SKY/WX    TMP DP  RH WIND       PRES   REMARKS
OMAK           LGT SNOW  32  31  96 CALM      30.24S FOG
WENATCHEE      FOG       38  35  89 NW3       30.21F VSB 3/4
ELLENSBURG     CLOUDY    40  35  83 SE5       30.18F
YAKIMA         PTCLDY    35  33  92 CALM      30.19F
$$

WAZ028-034-035-260600-
COLUMBIA BASIN

CITY           SKY/WX    TMP DP  RH WIND       PRES   REMARKS
EPHRATA        CLOUDY    37  36  96 N6        30.21F FOG
MOSES LAKE     CLOUDY    37  36  96 N8        30.22F FOG
PASCO          CLOUDY    42  41  96 NW5       30.23F
HERMISTON, OR  PTCLDY    42  39  89 NE7       30.20R
$$

WAZ036>038-260600-
NORTHEAST WASHINGTON

CITY           SKY/WX    TMP DP  RH WIND       PRES   REMARKS
SPOKANE GEIGER SNOW      33  33 100 N6        30.16F VSB 1/2
SPOKANE FELTS  CLOUDY    36  33  89 CALM      30.19F
FAIRCHILD AFB  LGT SNOW  33  32  99 N6        30.16F FOG
COEURDALENE,ID CLOUDY    34  30  86 E3        30.16F
DEER PARK      CLOUDY    33  32  96 N3        30.19S
$$

WAZ029>033-260600-
SOUTHEAST WASHINGTON

CITY           SKY/WX    TMP DP  RH WIND       PRES   REMARKS
PULLMAN        LGT RAIN  38  37  97 E7        30.16F FOG
LEWISTON, ID   CLOUDY    43  41  93 E6        30.17F
WALLA WALLA    FOG       42  41  96 S6        30.20F VSB<1/4
PENDLETON, OR  MOCLDY    54  47  77 SW13G22   30.19S
$$



USA.gov is the U.S. government's official web portal to all federal, state and local government web resources and services.